#timestamp,LO_Frequency,Hit,StdDev 
1530619215.0,286047004.3,N
1530619215.9,286047004.3,N
1530619235.8,286047003.7,N
1530619255.6,286047001.6,N
1530619275.4,286047003.1,N
1530619295.3,286047003.1,N
1530619315.1,286047005.4,N
1530619335.9,286047008.0,Y
1530619355.7,286047005.7,P
1530619375.5,286047005.8,P
1530619395.4,286047004.3,P
1530619415.2,286046999.8,N
1530619435.0,286047000.8,N
1530619436.0,286047000.8,N
1530619455.8,286047001.2,N
1530619475.6,286046999.2,N
1530619495.5,286046999.5,N
1530619515.3,286046996.5,N
1530619535.1,286046999.3,N
1530619555.9,286046997.4,N
1530619575.7,286046997.2,N
1530619595.6,286046997.3,N
1530619615.4,286046995.2,N
1530619635.2,286046994.6,N
1530619655.1,286046994.7,N
1530619656.0,286046994.7,N
1530619675.8,286046992.5,N
1530619695.6,286046994.6,N
1530619715.5,286046992.0,N
1530619735.3,286046990.3,N
1530619755.2,286046993.1,N
1530619775.9,286046991.0,N
1530619795.7,286046990.1,N
1530619815.6,286046988.5,N
1530619835.4,286046992.9,N
1530619855.2,286046986.3,N
1530619875.1,286046992.7,N
1530619876.0,286046992.7,N
1530619895.8,286046993.1,N
1530619915.7,286046990.4,N
1530619935.5,286046991.2,N
1530619955.3,286046986.9,Y
1530619975.2,286046993.7,P
1530619995.0,286046996.4,P
1530619995.9,286046996.4,P
1530620015.8,286046996.2,Y
1530620035.6,286046998.6,P
1530620055.4,286047001.1,N
1530620075.3,286047000.2,N
1530620095.1,286047000.7,N
1530620115.8,286047001.1,N
1530620135.7,286046995.9,N
1530620155.5,286046997.6,N
1530620175.4,286046997.8,N
1530620195.2,286046995.5,N
1530620215.0,286046995.5,N
1530620215.9,286046995.5,N
1530620235.8,286046997.2,N
1530620255.6,286046995.1,N
1530620275.4,286046996.1,N
1530620295.3,286046996.4,N
1530620315.1,286046996.2,N
1530620335.9,286046996.3,N
1530620355.7,286046995.4,N
1530620375.5,286046995.1,N
1530620395.4,286046995.0,N
1530620415.2,286046995.5,N
1530620435.0,286046995.5,N
1530620436.0,286046995.5,N
1530620455.8,286046993.7,Y
1530620505.7,286047000.9,E
1530620515.6,286047000.8,N
1530620535.4,286046998.3,P
1530620555.3,286047000.7,N
1530620575.1,286047001.2,N
1530620576.0,286047001.2,N
1530620595.8,286046998.5,N
1530620615.7,286046998.9,N
1530620635.5,286046998.4,N
1530620655.4,286046998.4,N
1530620675.2,286046998.6,N
1530620695.0,286046999.0,N
1530620695.9,286046999.0,N
1530620715.8,286046998.6,N
1530620735.6,286047002.7,N
1530620755.4,286047003.7,N
1530620775.3,286047000.2,N
1530620795.1,286046998.2,N
1530620815.9,286046996.8,N
1530620835.7,286046997.6,N
1530620855.5,286046997.7,N
1530620875.4,286046997.7,N
1530620895.2,286046997.5,N
1530620915.0,286046997.3,N
1530620915.9,286046997.3,N
1530620935.8,286046996.1,N
1530620955.6,286046995.4,N
1530620975.5,286046993.8,Y
1530620995.3,286046995.3,P
1530621015.1,286046995.1,N
1530621035.9,286046996.2,N
1530621055.7,286046994.9,Y
1530621075.6,286047000.6,P
1530621095.4,286047002.5,N
1530621115.2,286047000.1,N
1530621135.1,286047003.7,N
1530621136.0,286047003.7,N
1530621155.8,286047005.8,N
1530621175.6,286047005.0,N
1530621195.5,286047005.0,N
1530621215.3,286047005.6,N
1530621235.2,286047002.0,N
1530621255.9,286047001.3,N
1530621275.7,286047003.0,N
1530621295.6,286047004.9,N
1530621315.4,286047006.0,N
1530621335.3,286047004.4,N
1530621355.1,286047002.3,N
1530621356.0,286047002.3,N
1530621375.8,286047004.2,N
1530621395.7,286047000.2,N
1530621415.5,286047000.1,N
1530621435.3,286047000.9,N
1530621455.2,286046999.9,N
1530621475.0,286047001.0,N
1530621475.9,286047001.0,N
1530621495.8,286047001.2,N
1530621515.6,286046998.7,N
1530621535.4,286046998.6,N
1530621555.3,286046998.9,N
1530621575.1,286047002.0,N
1530621595.8,286047003.3,N
1530621615.7,286047005.9,N
1530621635.5,286047003.8,N
1530621655.4,286047003.9,N
1530621675.2,286047004.7,N
1530621695.0,286047004.2,N
1530621695.9,286047004.2,N
1530621715.8,286047000.7,N
1530621735.6,286046996.5,N
1530621755.4,286046999.4,N
1530621775.3,286047001.0,N
1530621795.1,286047000.5,N
1530621815.9,286047000.8,N
1530621835.7,286046999.7,N
1530621855.5,286047001.2,N
1530621875.4,286047002.4,N
1530621895.2,286046999.9,N
1530621915.0,286047000.4,N
1530621916.0,286047000.4,N
1530621935.8,286047001.0,N
1530621955.6,286047002.6,N
1530621975.5,286047000.4,N
1530621995.3,286046998.4,N
1530622015.1,286047002.2,N
1530622035.9,286047002.0,N
1530622055.7,286047002.4,N
1530622075.6,286047002.6,N
1530622095.4,286047001.3,N
1530622115.2,286047001.3,N
1530622135.1,286047002.6,N
1530622136.0,286047002.6,N
1530622155.8,286047000.7,N
1530622175.6,286046999.5,N
1530622195.5,286046997.5,N
1530622215.3,286046998.4,N
1530622235.2,286046998.0,N
1530622255.9,286046996.5,N
1530622275.7,286046998.7,N
1530622295.6,286046999.8,N
1530622315.4,286047000.9,N
1530622335.2,286047000.9,N
1530622355.1,286047000.2,N
1530622356.0,286047000.2,N
1530622375.8,286047002.4,N
1530622395.7,286047001.9,N
1530622415.5,286047002.4,N
1530622435.3,286047004.3,N
1530622455.2,286047003.9,N
1530622475.0,286047004.2,N
1530622475.9,286047004.2,N
1530622495.7,286047001.6,N
1530622515.6,286047001.7,N
1530622535.4,286047003.2,N
1530622555.3,286047002.0,N
1530622575.1,286047004.1,N
1530622576.0,286047004.1,N
1530622595.8,286047003.6,N
1530622615.7,286046999.8,N
1530622635.5,286046999.7,N
1530622655.4,286047002.6,N
1530622675.2,286047000.2,N
1530622695.0,286046998.4,N
1530622695.9,286046998.4,N
1530622715.8,286046998.9,N
1530622735.6,286046998.3,N
1530622755.4,286046999.1,N
1530622775.3,286046999.4,N
1530622795.1,286046996.7,N
